This is the latest recevied weather packets stored in our database for station/object KQ4PPF. If no packets are shown the sender has not sent any weather packets the latest 10 day(s).
| Time | Temp. | Humidity | Pressure | Rain* | Wind** | Luminosity | Snow |
|---|---|---|---|---|---|---|---|
| 1777484896 | 24.44° C | 81% | 1011.4 hPa | 0 mm | - | 176 W/m² | - |
| 1777484593 | 23.89° C | 83% | 1011.5 hPa | 0 mm | - | 489 W/m² | - |
| 1777484289 | 23.33° C | 84% | 1011.4 hPa | 0 mm | - | 638 W/m² | - |
| 1777483985 | 23.89° C | 83% | 1011.7 hPa | 0 mm | - | 98 W/m² | - |
| 1777483682 | 23.89° C | 83% | 1011.7 hPa | 0 mm | - | 371 W/m² | - |
| 1777483377 | 23.33° C | 84% | 1011.6 hPa | 0 mm | - | 153 W/m² | - |
| 1777483073 | 22.78° C | 85% | 1011.8 hPa | 0 mm | - | 121 W/m² | - |
| 1777482770 | 22.78° C | 87% | 1011.9 hPa | 0 mm | - | 115 W/m² | - |
| 1777482466 | 22.22° C | 87% | 1011.7 hPa | 0 mm | - | 150 W/m² | - |
| 1777482164 | 21.67° C | 88% | 1011.9 hPa | 0 mm | - | 218 W/m² | - |
| 1777481861 | 21.67° C | 89% | 1012 hPa | 0 mm | - | 127 W/m² | - |
| 1777481558 | 21.67° C | 87% | 1012.4 hPa | 0 mm | - | 90 W/m² | - |
| 1777481255 | 21.67° C | 88% | 1012.2 hPa | 0 mm | - | 95 W/m² | - |
| 1777480952 | 21.67° C | 88% | 1012.4 hPa | 0 mm | - | 120 W/m² | - |
| 1777480648 | 21.67° C | 88% | 1012.5 hPa | 0 mm | - | 105 W/m² | - |
| 1777480345 | 21.67° C | 88% | 1012.5 hPa | 0 mm | - | 147 W/m² | - |
| 1777480040 | 21.67° C | 89% | 1012.5 hPa | 0 mm | - | 177 W/m² | - |
| 1777479737 | 21.67° C | 89% | 1012.3 hPa | 0 mm | - | 95 W/m² | - |
| 1777479436 | 21.11° C | 89% | 1012.4 hPa | 0 mm | - | 136 W/m² | - |
| 1777479132 | 21.11° C | 88% | 1012.5 hPa | 0 mm | - | 150 W/m² | - |
| 1777478829 | 21.11° C | 88% | 1012.7 hPa | 0 mm | - | 98 W/m² | - |
| 1777478525 | 21.11° C | 89% | 1012.7 hPa | 0 mm | - | 135 W/m² | - |
| 1777478222 | 21.67° C | 88% | 1012.4 hPa | 0 mm | - | 105 W/m² | - |
| 1777477918 | 21.67° C | 87% | 1012.6 hPa | 0 mm | - | 157 W/m² | - |
| 1777477614 | 21.67° C | 88% | 1012.8 hPa | 0 mm | - | 66 W/m² | - |
* Rain latest hour (hover to see other rain measurements)
** Current wind speed in m/s (hover to see current wind gust speed)